Flood From: 19-02-2018 06:00 Until: 20-02-2018 06:00 warning for: Flood Level: Yellow info button

Although rather usual in this region, locally or potentially dangerous phenomena are expected. (such as local winds, summer thunderstorms, rising streams or high waves) Be aware and pay attention to the latest weather updates, especially if you carry out activities exposed to weather or close to a stream or shoreline. 


Meteo18 Weather Cam more information Meteo18 Weather Cam


Thunder radar more information blitzortung!


Rain radar more information rain snow radar


Visit our other weather sites:

Template documentation
and downloads

And another site



Weather Underground History page Text

Daily Summary for November 4, 2017 Units:  English    Metric   Both
« Previous Day
Next Day »
Daily Weekly Monthly Yearly Custom
  High: Low: Average:
Temperature: TemperatureC °F 7.3 °F 12.8 °F
Dew Point: DewpointC °F 6.9 °F 10.2 °F
Humidity: Humidity % 69 % 84 %
Wind Speed: WindSpeedKMH mph 0.0 mph 3.4 mph
Wind Gust: WindSpeedGustKMH mph - -
Wind:- - SW
Pressure: PressurehPa in 1009.7 in -
Precipitation: 1.0 in    
Historical Graphs
 
 
Tabular Data for November 4, 2017
Time Temperature Dew Point Pressure Wind Wind Speed Wind Gust Humidity Rainfall Rate (Hourly)
TemperatureC °F DewpointC °F PressurehPa in Calm     Humidity % HourlyPrecipMM in
00:02 9.7 °F 8.5 °F 1012.1 in WNW 1.6 mph 3.2 mph 92 % 0.0 in
00:07 9.4 °F 8.2 °F 1012.4 in WNW 1.6 mph 3.2 mph 92 % 0.0 in
00:12 9.3 °F 8.2 °F 1012.1 in Calm   1.6 mph 93 % 0.0 in
00:17 9.4 °F 8.5 °F 1012.1 in Calm   3.2 mph 94 % 0.0 in
00:22 9.8 °F 9.0 °F 1012.1 in WNW 3.2 mph 3.2 mph 95 % 0.0 in
00:27 9.6 °F 8.5 °F 1012.1 in Calm   3.2 mph 93 % 0.0 in
00:32 9.5 °F 8.4 °F 1012.1 in Calm   3.2 mph 93 % 0.0 in
00:37 9.7 °F 8.8 °F 1012.1 in Calm   3.2 mph 94 % 0.0 in
00:42 9.8 °F 8.9 °F 1012.1 in Calm   1.6 mph 94 % 0.0 in
00:47 9.7 °F 8.8 °F 1012.1 in Calm   1.6 mph 94 % 0.0 in
00:52 9.8 °F 8.9 °F 1012.1 in Calm     94 % 0.0 in
00:57 9.8 °F 8.9 °F 1012.1 in Calm     94 % 0.0 in
01:02 9.7 °F 8.6 °F 1012.1 in Calm     93 % 0.0 in
01:07 9.6 °F 8.8 °F 1012.1 in Calm     95 % 0.0 in
01:12 9.6 °F 8.7 °F 1012.1 in SSW 1.6 mph 1.6 mph 94 % 0.0 in
01:17 9.8 °F 8.9 °F 1011.7 in Calm   3.2 mph 94 % 0.0 in
01:22 9.8 °F 8.9 °F 1011.7 in Calm   3.2 mph 94 % 0.0 in
01:27 9.8 °F 8.7 °F 1011.7 in Calm   3.2 mph 93 % 0.0 in
01:32 9.8 °F 8.7 °F 1011.7 in Calm   1.6 mph 93 % 0.0 in
01:37 9.7 °F 8.6 °F 1011.7 in Calm   1.6 mph 93 % 0.0 in
01:42 9.6 °F 8.5 °F 1011.7 in Calm   1.6 mph 93 % 0.0 in
01:47 9.5 °F 8.4 °F 1011.7 in Calm   1.6 mph 93 % 0.0 in
01:52 9.4 °F 8.3 °F 1011.7 in Calm   1.6 mph 93 % 0.0 in
01:57 9.4 °F 8.5 °F 1012.1 in Calm     94 % 0.0 in
02:02 9.2 °F 8.1 °F 1012.1 in Calm   1.6 mph 93 % 0.0 in
02:07 9.1 °F 8.2 °F 1011.7 in Calm   1.6 mph 94 % 0.0 in
02:12 9.1 °F 8.2 °F 1011.7 in Calm   1.6 mph 94 % 0.0 in
02:17 9.1 °F 8.2 °F 1012.1 in Calm     94 % 0.0 in
02:22 9.2 °F 8.4 °F 1012.1 in Calm   1.6 mph 95 % 0.0 in
02:27 9.1 °F 8.3 °F 1011.7 in Calm   1.6 mph 95 % 0.0 in
02:37 9.0 °F 8.2 °F 1011.7 in Calm   1.6 mph 95 % 0.0 in
02:47 8.7 °F 7.8 °F 1012.1 in Calm     94 % 0.0 in
02:52 8.7 °F 7.8 °F 1011.7 in Calm     94 % 0.0 in
08:12 7.3 °F 6.9 °F 1011.7 in Calm     97 % 0 in
08:17 7.3 °F 6.9 °F 1011.7 in Calm   1.6 mph 97 % 0.0 in
08:22 7.7 °F 7.3 °F 1011.7 in Calm   1.6 mph 97 % 0.0 in
08:27 7.8 °F 7.4 °F 1011.7 in Calm   1.6 mph 97 % 0.0 in
08:32 7.8 °F 7.4 °F 1011.7 in Calm     97 % 0.0 in
08:37 7.9 °F 7.5 °F 1011.7 in Calm     97 % 0.0 in
08:42 8.0 °F 7.6 °F 1011.7 in Calm   1.6 mph 97 % 0.0 in
08:47 8.2 °F 7.8 °F 1011.7 in SW 3.2 mph 3.2 mph 97 % 0.0 in
08:52 8.4 °F 8.0 °F 1011.7 in Calm   3.2 mph 97 % 0.0 in
08:57 8.5 °F 8.1 °F 1011.7 in Calm   3.2 mph 97 % 0.3 in
09:02 8.5 °F 8.1 °F 1011.7 in Calm   3.2 mph 97 % 0.3 in
09:07 8.7 °F 8.1 °F 1011.7 in Calm   1.6 mph 96 % 0.3 in
09:12 8.8 °F 8.2 °F 1011.7 in Calm   3.2 mph 96 % 0.3 in
09:17 9.0 °F 8.4 °F 1011.7 in Calm   3.2 mph 96 % 0.3 in
09:22 9.2 °F 8.6 °F 1011.7 in Calm   3.2 mph 96 % 0.3 in
09:32 9.6 °F 8.8 °F 1012.1 in West 1.6 mph 3.2 mph 95 % 0.3 in
09:37 9.8 °F 9.0 °F 1012.1 in Calm   3.2 mph 95 % 0.3 in
09:42 10.1 °F 9.2 °F 1012.1 in Calm   3.2 mph 94 % 0.3 in
09:47 10.4 °F 9.5 °F 1012.1 in Calm   1.6 mph 94 % 0.3 in
09:52 10.8 °F 9.6 °F 1012.1 in SW 3.2 mph 3.2 mph 92 % 0.3 in
09:57 10.9 °F 9.3 °F 1011.7 in SW 1.6 mph 4.8 mph 90 % 0.0 in
10:02 11.1 °F 9.5 °F 1011.7 in SSW 1.6 mph 4.8 mph 90 % 0.0 in
10:07 11.3 °F 9.6 °F 1011.7 in SSW 3.2 mph 4.8 mph 89 % 0.0 in
10:12 11.6 °F 9.8 °F 1012.1 in Calm   4.8 mph 89 % 0.0 in
10:17 12.0 °F 10.1 °F 1011.7 in SSE 3.2 mph 4.8 mph 88 % 0.0 in
10:22 12.4 °F 10.5 °F 1011.7 in SE 1.6 mph 4.8 mph 88 % 0.0 in
10:27 12.6 °F 10.1 °F 1011.7 in SSW 4.8 mph 8.0 mph 85 % 0.0 in
10:32 12.7 °F 10.2 °F 1011.7 in SSW 3.2 mph 8.0 mph 85 % 0.0 in
10:37 12.9 °F 10.4 °F 1012.1 in SW 1.6 mph 8.0 mph 85 % 0.0 in
10:42 13.3 °F 10.7 °F 1011.7 in SSW 1.6 mph 8.0 mph 84 % 0.0 in
10:47 13.6 °F 10.8 °F 1012.1 in SSW 6.4 mph 6.4 mph 83 % 0.0 in
10:52 13.7 °F 10.7 °F 1012.1 in SW 4.8 mph 8.0 mph 82 % 0.0 in
10:57 13.8 °F 10.6 °F 1012.1 in SW 8.0 mph 8.0 mph 81 % 0.0 in
11:02 14.1 °F 10.9 °F 1012.1 in SW 1.6 mph 8.0 mph 81 % 0.0 in
11:07 14.3 °F 11.1 °F 1012.1 in SW 9.7 mph 9.7 mph 81 % 0.0 in
11:12 14.7 °F 10.5 °F 1012.1 in WSW 16.1 mph 16.1 mph 76 % 0.0 in
11:17 14.8 °F 10.6 °F 1011.7 in SW 9.7 mph 20.9 mph 76 % 0.0 in
11:22 15.1 °F 10.7 °F 1011.7 in SW 6.4 mph 20.9 mph 75 % 0.0 in
11:27 15.3 °F 10.9 °F 1011.7 in WSW 14.5 mph 20.9 mph 75 % 0.0 in
11:32 15.3 °F 10.5 °F 1011.7 in WSW 12.9 mph 16.1 mph 73 % 0.0 in
11:37 15.3 °F 10.5 °F 1011.7 in SW 14.5 mph 19.3 mph 73 % 0.0 in
11:42 15.4 °F 10.6 °F 1011.7 in WSW 14.5 mph 22.5 mph 73 % 0.0 in
11:47 15.4 °F 10.6 °F 1011.7 in SW 16.1 mph 22.5 mph 73 % 0.0 in
11:52 15.5 °F 10.9 °F 1011.7 in SW 9.7 mph 22.5 mph 74 % 0.0 in
11:57 15.6 °F 11.0 °F 1011.7 in South 11.3 mph 25.7 mph 74 % 0.0 in
12:07 15.7 °F 11.1 °F 1011.4 in WSW 11.3 mph 25.7 mph 74 % 0.0 in
12:12 15.7 °F 11.1 °F 1011.4 in West 9.7 mph 20.9 mph 74 % 0.0 in
12:17 15.8 °F 11.2 °F 1011.4 in SSW 4.8 mph 22.5 mph 74 % 0.0 in
12:22 15.9 °F 11.5 °F 1011.4 in SW 8.0 mph 22.5 mph 75 % 0.0 in
12:27 16.1 °F 11.5 °F 1011.4 in SW 17.7 mph 19.3 mph 74 % 0.0 in
12:32 16.2 °F 11.6 °F 1011.4 in WSW 12.9 mph 20.9 mph 74 % 0.0 in
12:37 16.3 °F 11.7 °F 1011.1 in SW 9.7 mph 22.5 mph 74 % 0.0 in
12:42 16.3 °F 11.7 °F 1011.1 in WSW 11.3 mph 22.5 mph 74 % 0.0 in
12:47 16.2 °F 11.6 °F 1011.1 in WSW 17.7 mph 17.7 mph 74 % 0.0 in
12:52 16.2 °F 11.6 °F 1011.1 in WSW 17.7 mph 20.9 mph 74 % 0.0 in
12:57 16.2 °F 11.6 °F 1011.1 in West 9.7 mph 20.9 mph 74 % 0.0 in
13:02 16.1 °F 11.5 °F 1011.1 in West 9.7 mph 20.9 mph 74 % 0.0 in
13:12 16.1 °F 11.7 °F 1011.1 in WSW 11.3 mph 19.3 mph 75 % 0.0 in
13:17 15.9 °F 11.5 °F 1011.1 in SSW 8.0 mph 19.3 mph 75 % 0.0 in
13:22 15.9 °F 11.7 °F 1011.1 in SSW 8.0 mph 19.3 mph 76 % 0.0 in
13:27 15.9 °F 11.7 °F 1011.1 in West 8.0 mph 19.3 mph 76 % 0.0 in
13:32 16.0 °F 11.8 °F 1010.7 in SSW 9.7 mph 19.3 mph 76 % 0.0 in
13:37 16.2 °F 11.8 °F 1010.7 in SW 9.7 mph 17.7 mph 75 % 0.0 in
13:42 16.3 °F 11.7 °F 1010.7 in WSW 9.7 mph 17.7 mph 74 % 0.0 in
13:47 16.6 °F 11.7 °F 1010.7 in SW 8.0 mph 24.1 mph 73 % 0.0 in
13:52 16.8 °F 11.9 °F 1010.7 in SW 9.7 mph 24.1 mph 73 % 0.0 in
13:57 16.9 °F 11.6 °F 1010.7 in WNW 6.4 mph 24.1 mph 71 % 0.0 in
14:02 17.1 °F 11.6 °F 1010.4 in West 12.9 mph 20.9 mph 70 % 0.0 in
14:07 17.1 °F 11.6 °F 1010.4 in West 9.7 mph 20.9 mph 70 % 0.0 in
14:12 17.0 °F 11.7 °F 1010.4 in WSW 8.0 mph 24.1 mph 71 % 0.0 in
14:17 16.9 °F 11.6 °F 1010.4 in SSW 8.0 mph 24.1 mph 71 % 0.0 in
14:22 17.0 °F 11.7 °F 1010.4 in SW 12.9 mph 19.3 mph 71 % 0.0 in
14:27 16.9 °F 11.8 °F 1010.4 in SW 16.1 mph 16.1 mph 72 % 0.0 in
14:32 16.9 °F 11.6 °F 1010.0 in SW 11.3 mph 17.7 mph 71 % 0.0 in
14:37 17.1 °F 11.8 °F 1010.0 in SW 14.5 mph 17.7 mph 71 % 0.0 in
14:42 17.0 °F 11.7 °F 1010.0 in SW 4.8 mph 17.7 mph 71 % 0.0 in
14:47 17.1 °F 12.0 °F 1010.0 in WSW 4.8 mph 17.7 mph 72 % 0.0 in
14:52 17.2 °F 11.7 °F 1010.0 in SW 16.1 mph 16.1 mph 70 % 0.0 in
14:57 17.2 °F 11.7 °F 1010.0 in SSW 4.8 mph 17.7 mph 70 % 0.0 in
15:02 17.3 °F 11.8 °F 1010.0 in WSW 11.3 mph 19.3 mph 70 % 0.0 in
15:07 17.3 °F 11.8 °F 1010.0 in WSW 8.0 mph 19.3 mph 70 % 0.0 in
15:12 17.3 °F 11.6 °F 1010.0 in WSW 9.7 mph 19.3 mph 69 % 0.0 in
15:17 17.3 °F 11.6 °F 1010.0 in WSW 11.3 mph 17.7 mph 69 % 0.0 in
15:22 17.2 °F 11.5 °F 1010.0 in SW 12.9 mph 17.7 mph 69 % 0.0 in
15:32 17.2 °F 11.7 °F 1010.0 in SW 9.7 mph 19.3 mph 70 % 0.0 in
15:42 17.2 °F 11.7 °F 1010.0 in West 8.0 mph 19.3 mph 70 % 0.0 in
15:52 17.1 °F 11.6 °F 1010.0 in SW 9.7 mph 17.7 mph 70 % 0.0 in
15:57 17.1 °F 11.8 °F 1010.0 in SW 6.4 mph 14.5 mph 71 % 0.0 in
16:02 16.9 °F 11.6 °F 1010.0 in West 3.2 mph 14.5 mph 71 % 0.0 in
16:12 16.7 °F 11.6 °F 1009.7 in WSW 8.0 mph 12.9 mph 72 % 0.0 in
16:17 16.6 °F 11.7 °F 1009.7 in SW 4.8 mph 12.9 mph 73 % 0.0 in
16:22 16.5 °F 11.6 °F 1009.7 in SSW 3.2 mph 11.3 mph 73 % 0.0 in
16:27 16.4 °F 11.5 °F 1009.7 in SW 6.4 mph 11.3 mph 73 % 0.0 in
16:32 16.3 °F 11.5 °F 1009.7 in Calm   11.3 mph 73 % 0.0 in
16:37 16.2 °F 11.6 °F 1009.7 in SW 4.8 mph 9.7 mph 74 % 0.0 in
16:42 16.2 °F 11.6 °F 1010.0 in SW 1.6 mph 9.7 mph 74 % 0.0 in
16:47 16.1 °F 11.5 °F 1010.0 in WSW 6.4 mph 8.0 mph 74 % 0.0 in
16:52 15.9 °F 11.5 °F 1010.0 in SW 1.6 mph 8.0 mph 75 % 0.0 in
16:57 15.8 °F 11.4 °F 1010.0 in SW 1.6 mph 8.0 mph 75 % 0.0 in
17:02 15.6 °F 11.4 °F 1010.0 in SSW 1.6 mph 6.4 mph 76 % 0.0 in
17:07 15.3 °F 11.3 °F 1010.0 in Calm   4.8 mph 77 % 0.0 in
17:12 15.2 °F 11.2 °F 1010.0 in Calm   3.2 mph 77 % 0.0 in
17:17 15.1 °F 11.3 °F 1010.0 in Calm   1.6 mph 78 % 0.0 in
17:22 15.0 °F 11.2 °F 1010.0 in SSW 1.6 mph 1.6 mph 78 % 0.0 in
17:32 14.8 °F 11.2 °F 1010.0 in SW 1.6 mph 3.2 mph 79 % 0.0 in
17:37 14.9 °F 11.3 °F 1010.0 in SSW 1.6 mph 4.8 mph 79 % 0.0 in
17:42 15.1 °F 11.5 °F 1010.0 in Calm   4.8 mph 79 % 0.0 in
17:47 15.1 °F 11.5 °F 1010.0 in Calm   4.8 mph 79 % 0.0 in
17:57 15.1 °F 11.7 °F 1010.0 in WSW 6.4 mph 6.4 mph 80 % 0.0 in
18:02 15.0 °F 11.6 °F 1010.0 in SSW 1.6 mph 6.4 mph 80 % 0.0 in
18:07 14.8 °F 11.4 °F 1010.0 in SSW 3.2 mph 6.4 mph 80 % 0.0 in
18:12 14.6 °F 11.4 °F 1010.0 in South 4.8 mph 6.4 mph 81 % 0.0 in
18:17 14.6 °F 11.4 °F 1010.0 in SW 3.2 mph 6.4 mph 81 % 0.0 in
18:22 14.4 °F 11.2 °F 1010.0 in SSW 1.6 mph 6.4 mph 81 % 0.0 in
18:27 14.3 °F 11.3 °F 1010.0 in SSW 1.6 mph 6.4 mph 82 % 0.0 in
18:32 14.4 °F 11.5 °F 1010.0 in WSW 1.6 mph 6.4 mph 83 % 0.0 in
18:37 14.4 °F 11.4 °F 1010.0 in WNW 1.6 mph 4.8 mph 82 % 0.0 in
18:42 14.4 °F 11.5 °F 1010.0 in West 3.2 mph 4.8 mph 83 % 0.0 in
18:47 14.3 °F 11.5 °F 1010.4 in West 1.6 mph 4.8 mph 83 % 0.0 in
18:52 14.3 °F 11.5 °F 1010.4 in WSW 1.6 mph 4.8 mph 83 % 0.0 in
18:57 14.2 °F 11.4 °F 1010.4 in Calm   4.8 mph 83 % 0.0 in
19:02 14.1 °F 11.4 °F 1010.4 in Calm   1.6 mph 84 % 0.0 in
19:07 14.1 °F 11.3 °F 1010.4 in North 1.6 mph 1.6 mph 83 % 0.0 in
19:12 14.1 °F 11.4 °F 1010.7 in NNW 1.6 mph 3.2 mph 84 % 0.0 in
19:17 13.9 °F 11.2 °F 1010.7 in NW 4.8 mph 8.0 mph 84 % 0.0 in
19:22 13.9 °F 11.2 °F 1010.7 in Calm   8.0 mph 84 % 0.0 in
19:27 13.8 °F 11.1 °F 1010.7 in North 1.6 mph 8.0 mph 84 % 0.0 in
19:32 13.8 °F 11.1 °F 1010.7 in Calm   6.4 mph 84 % 0.0 in
19:37 13.8 °F 11.1 °F 1010.7 in Calm   3.2 mph 84 % 0.0 in
19:42 13.6 °F 10.9 °F 1010.7 in Calm   3.2 mph 84 % 0.0 in
19:47 13.4 °F 10.9 °F 1010.7 in Calm   3.2 mph 85 % 0.0 in
19:52 13.3 °F 10.8 °F 1010.7 in Calm   1.6 mph 85 % 0.0 in
19:57 13.3 °F 11.0 °F 1010.7 in Calm   1.6 mph 86 % 0.0 in
20:02 13.2 °F 10.9 °F 1010.4 in Calm   3.2 mph 86 % 0.0 in
20:07 13.2 °F 10.9 °F 1010.4 in Calm   3.2 mph 86 % 0.0 in
20:12 12.9 °F 10.4 °F 1010.4 in Calm     85 % 0.0 in
20:17 12.6 °F 10.5 °F 1010.4 in Calm   1.6 mph 87 % 0.0 in
20:22 12.6 °F 10.7 °F 1010.4 in Calm   1.6 mph 88 % 0.0 in
20:27 12.6 °F 10.7 °F 1010.0 in Calm   1.6 mph 88 % 0.0 in
20:32 12.6 °F 10.7 °F 1010.0 in Calm     88 % 0.0 in
20:37 12.4 °F 10.5 °F 1010.4 in WNW 1.6 mph 3.2 mph 88 % 0.0 in
20:42 12.1 °F 10.3 °F 1010.4 in Calm   3.2 mph 89 % 0.0 in
20:47 11.9 °F 10.1 °F 1010.4 in North 3.2 mph 3.2 mph 89 % 0.0 in
20:52 11.8 °F 10.2 °F 1010.4 in Calm   3.2 mph 90 % 0.0 in
20:57 11.6 °F 10.0 °F 1010.4 in NNE 1.6 mph 3.2 mph 90 % 0.0 in
21:02 11.7 °F 10.3 °F 1010.4 in Calm   3.2 mph 91 % 0.0 in
21:07 11.8 °F 10.4 °F 1010.4 in Calm   3.2 mph 91 % 0.0 in
21:12 11.8 °F 10.2 °F 1010.4 in Calm   3.2 mph 90 % 0.0 in
21:17 11.5 °F 9.9 °F 1010.4 in Calm   1.6 mph 90 % 0.0 in
21:22 11.3 °F 9.7 °F 1010.4 in SSE 1.6 mph 1.6 mph 90 % 0.0 in
21:32 11.1 °F 9.7 °F 1010.4 in Calm   1.6 mph 91 % 0.0 in
21:37 11.1 °F 9.8 °F 1010.4 in Calm   1.6 mph 92 % 0.0 in
21:42 11.1 °F 9.8 °F 1010.4 in Calm     92 % 0.0 in
21:47 11.2 °F 10.1 °F 1010.4 in Calm   1.6 mph 93 % 0.0 in
21:52 11.2 °F 9.9 °F 1010.0 in Calm   1.6 mph 92 % 0.0 in
21:57 11.2 °F 9.9 °F 1010.0 in Calm   1.6 mph 92 % 0.0 in
22:02 11.2 °F 9.9 °F 1010.0 in Calm   1.6 mph 92 % 0.0 in
22:07 11.2 °F 9.9 °F 1010.0 in WNW 1.6 mph 1.6 mph 92 % 0.0 in
22:12 11.3 °F 10.2 °F 1010.0 in WNW 1.6 mph 3.2 mph 93 % 0.0 in
22:17 11.4 °F 10.1 °F 1010.0 in Calm   3.2 mph 92 % 0.0 in
22:22 11.4 °F 10.1 °F 1010.0 in Calm   1.6 mph 92 % 0.0 in
22:27 11.4 °F 10.1 °F 1010.0 in Calm   1.6 mph 92 % 0.0 in
22:32 11.3 °F 10.0 °F 1010.0 in Calm   1.6 mph 92 % 0.0 in
22:37 11.2 °F 9.9 °F 1010.0 in Calm   1.6 mph 92 % 0.0 in
22:42 11.1 °F 9.8 °F 1010.0 in SE 1.6 mph   92 % 0.0 in
22:47 10.7 °F 9.3 °F 1010.0 in Calm   3.2 mph 91 % 0.0 in
22:52 10.6 °F 9.2 °F 1010.0 in Calm   3.2 mph 91 % 0.0 in
22:57 10.5 °F 9.3 °F 1010.0 in Calm   3.2 mph 92 % 0.0 in
23:02 10.5 °F 9.3 °F 1009.7 in Calm     92 % 0.0 in
23:07 10.6 °F 9.4 °F 1009.7 in Calm     92 % 0.0 in
23:12 10.5 °F 9.3 °F 1010.0 in Calm     92 % 0.0 in
23:17 10.5 °F 9.4 °F 1010.0 in Calm     93 % 0.0 in
23:22 10.5 °F 9.4 °F 1010.0 in Calm     93 % 0.0 in
23:27 10.4 °F 9.3 °F 1009.7 in Calm     93 % 0.0 in
23:32 10.5 °F 9.4 °F 1010.0 in Calm     93 % 0.0 in
23:37 10.4 °F 9.3 °F 1010.0 in Calm     93 % 0.0 in
23:42 10.4 °F 9.3 °F 1010.0 in Calm     93 % 0.3 in
23:47 10.6 °F 9.7 °F 1010.0 in SSW 1.6 mph 1.6 mph 94 % 0.8 in
23:52 10.7 °F 9.8 °F 1010.0 in Calm   1.6 mph 94 % 0.8 in
23:57 10.8 °F 9.9 °F 1010.0 in Calm   1.6 mph 94 % 0.8 in
Meteo18
Compliments of Weather Underground - 4 mb

Script developed by  Jim McMurry - jmcmurry@mwt.net Adapted for the template by  Wim van der Kuil - Leuven-Template.eu

You find our weather info also at:

European Weather Network

Weather Underground

Equipment we use:

Weather-station
Davis Vue

Weather-program
Meteobridge

Weather-server
Raspberry PI 2 B+

Provider
1 and 1

Davis Vue

Meteobridge

Raspberry PI 2 B+

1 and 1